G4GVZ-1 Weather Reports


time (UTC)temp
F
wind
direction
speed
knots
gust
knots
rain 1hr
in
rain 24hr
in
rain mn
in
humidity
%
barometer
mb
20260505153049 59 359 2.6 9.6 0.00 0.00 0.00 58 1012.4
20260505151549 58 15 2.6 7.8 0.00 0.00 0.00 58 1012.5
20260505124550 60 14 2.6 9.6 0.00 0.00 0.00 53 1012.8
20260505123050 59 13 2.6 8.7 0.00 0.00 0.00 55 1012.8
20260505121550 60 356 2.6 11.3 0.00 0.00 0.00 54 1012.9
20260505120050 59 359 2.6 9.6 0.00 0.00 0.00 55 1013.0
20260505114549 58 356 3.5 10.4 0.00 0.00 0.00 58 1013.0
20260505113050 58 359 0.9 7.8 0.00 0.00 0.00 59 1013.1
20260505111550 58 347 2.6 10.4 0.00 0.00 0.00 61 1013.1
20260505101550 56 5 2.6 11.3 0.00 0.00 0.00 67 1013.6
20260505100050 56 13 1.7 7.8 0.00 0.00 0.00 67 1013.6
20260505094550 56 4 3.5 13.0 0.00 0.00 0.00 69 1013.7
20260505093050 54 18 3.5 11.3 0.00 0.00 0.00 69 1013.6
20260505092702 55 0 0.0 0.0 0.11 0.11 0.11 93 1010.6
20260505091549 54 10 1.7 9.6 0.00 0.00 0.00 72 1013.7
20260505090050 53 6 2.6 11.3 0.00 0.00 0.00 72 1013.9
20260505084550 53 8 1.7 8.7 0.00 0.00 0.00 76 1014.1
20260505083049 51 2 1.7 8.7 0.00 0.00 0.00 80 1014.1
20260505081549 51 4 3.5 11.3 0.00 0.00 0.00 81 1014.3
20260505080051 50 16 2.6 9.6 0.00 0.00 0.00 82 1014.2
20260505074551 50 21 1.7 8.7 0.00 0.00 0.00 83 1014.1
20260505073050 50 25 1.7 8.7 0.00 0.00 0.00 84 1014.1
20260505071550 50 34 1.7 8.7 0.00 0.00 0.00 84 1014.1
20260505070050 50 36 0.9 5.2 0.00 0.00 0.00 85 1014.0
20260505064547 49 63 0.0 4.3 0.00 0.00 0.00 87 1014.1
20260505063047 48 67 0.9 7.8 0.00 0.00 0.00 89 1013.9
20260505061547 48 76 0.9 5.2 0.00 0.00 0.00 90 1014.0
20260505060047 47 76 0.0 2.6 0.00 0.00 0.00 93 1014.2
20260505054546 47 0 0.0 0.0 0.00 0.00 0.00 95 1014.2
20260505053046 47 0 0.0 0.0 0.00 0.00 0.00 96 1014.4
20260505051548 46 0 0.0 0.0 0.00 0.00 0.00 95 1014.3
20260505041548 46 0 0.0 0.0 0.00 0.00 0.00 94 1013.9
20260505040047 47 0 0.0 0.0 0.00 0.00 0.00 94 1013.9
20260505034547 47 0 0.0 0.0 0.00 0.00 0.00 94 1013.9
20260505033047 47 0 0.0 0.0 0.00 0.00 0.00 93 1014.1
20260505031546 48 77 0.0 3.5 0.00 0.00 0.00 92 1014.1
20260505030046 49 0 0.0 0.0 0.00 0.00 0.00 90 1014.0
20260505024549 49 0 0.0 0.0 0.00 0.00 0.00 91 1013.9
20260505023049 49 0 0.0 0.0 0.00 0.00 0.00 92 1014.0
20260505021548 48 0 0.0 0.0 0.00 0.00 0.00 93 1014.3
20260505020048 48 0 0.0 0.0 0.00 0.00 0.00 93 1014.3
20260505014548 48 0 0.0 0.0 0.00 0.00 0.00 93 1014.3
20260505013048 48 0 0.0 0.0 0.00 0.00 0.00 92 1014.4
20260505011548 47 0 0.0 0.0 0.00 0.00 0.00 93 1014.5
20260505010047 47 0 0.0 0.0 0.00 0.00 0.00 93 1014.4
20260505004547 47 78 0.0 2.6 0.00 0.00 0.00 91 1014.4
20260505003049 48 0 0.0 0.0 0.00 0.00 0.00 90 1014.4
20260505001549 49 0 0.0 0.0 0.00 0.00 0.00 89 1014.5
20260505000048 49 0 0.0 0.0 0.00 0.00 0.00 88 1014.6
20260504234548 50 0 0.0 0.0 0.00 0.00 0.00 88 1014.8
20260504233048 50 0 0.0 0.0 0.00 0.00 0.00 87 1014.7
20260504231547 50 0 0.0 0.0 0.00 0.00 0.00 86 1014.5
20260504230047 51 0 0.0 0.0 0.00 0.00 0.00 86 1014.6
20260504224550 51 0 0.0 0.0 0.00 0.00 0.00 84 1014.8
20260504223050 52 0 0.0 0.0 0.00 0.00 0.00 83 1014.8
20260504221549 52 0 0.0 0.0 0.00 0.00 0.00 83 1014.9
20260504220049 53 0 0.0 0.0 0.00 0.02 0.00 82 1014.9
20260504214549 53 78 0.0 2.6 0.00 0.03 0.00 81 1014.9
20260504213049 53 78 0.0 3.5 0.00 0.05 0.00 81 1015.0
20260504211549 54 78 0.9 3.5 0.00 0.07 0.00 81 1014.9
20260504210048 54 78 3.5 7.8 0.00 0.14 0.00 80 1015.0
20260504204549 54 77 1.7 7.8 0.00 0.17 0.00 80 1015.0
20260504203049 55 77 0.9 3.5 0.00 0.17 0.00 80 1014.9
20260504201549 55 77 2.6 7.0 0.00 0.17 0.00 79 1014.8
20260504200049 56 77 2.6 7.0 0.00 0.17 0.00 78 1014.6
20260504194549 56 77 1.7 5.2 0.00 0.17 0.00 78 1014.5
20260504193048 57 77 1.7 5.2 0.00 0.17 0.00 77 1014.1
20260504191548 57 76 3.5 7.8 0.00 0.17 0.00 76 1014.0
20260504190050 58 75 2.6 9.6 0.00 0.17 0.00 74 1014.0
20260504184551 59 74 2.6 8.7 0.00 0.17 0.00 73 1014.0
20260504183050 59 66 2.6 7.0 0.00 0.17 0.00 72 1013.9
20260504181550 59 66 1.7 5.2 0.00 0.17 0.00 71 1013.9
20260504180050 59 67 1.7 7.0 0.00 0.16 0.00 73 1013.8
20260504174549 59 69 0.9 7.8 0.00 0.16 0.00 74 1013.8
20260504173049 60 72 0.9 4.3 0.00 0.16 0.00 73 1013.8
20260504171551 60 74 0.9 5.2 0.00 0.16 0.00 73 1013.8